Hourly Data Report for September 30, 2003

SHERBROOKE A
QUEBEC

45°26'00.000" N
71°41'00.000" W
241.40 m
7028124
71610
YSC

Download Data

Hourly Data (September 2003)
Hourly Data Report for September 30, 2003
TIME
LST
Temp Definition
°C
Dew Point Definition
°C
Rel Hum Definition
%
Precip. Amount Definition
mm

Wind Dir Definition
10's deg

Wind Spd Definition
km/h
Visibility Definition
km
Stn Press Definition
kPa
Hmdx Definition


Wind Chill Definition


Weather Definition


00:00 7.2 6.3 94   21 4 9.7 98.56      
01:00 8.8 7.9 94   23 9 15.0 98.61      
02:00 8.7 7.7 93   23 7 15.0 98.64      
03:00 9.0 7.6 91   23 11 15.0 98.70      
04:00 8.3 6.8 90   23 9 15.0 98.76      
05:00 6.7 5.1 90   24 13 15.0 98.81      
06:00 6.4 4.3 86   22 9 15.0 98.90      
07:00 7.8 5.2 84   21 7 24.1 98.97     Mainly Clear
08:00 9.5 5.4 76   24 13 24.1 99.04     Mostly Cloudy
09:00 9.3 4.7 73   23 13 24.1 99.10     Mainly Clear
10:00 9.6 3.4 65   25 17 24.1 99.10     Mostly Cloudy
11:00 11.4 4.6 63   25 17 24.1 99.08     Mostly Cloudy
12:00 12.1 3.6 56   25 17 24.1 99.05     Mainly Clear
13:00 13.6 2.7 48   25 13 24.1 99.02     Mainly Clear
14:00 12.3 2.8 52   27 13 24.1 99.03     Mostly Cloudy
15:00 12.6 2.2 49   27 15 24.1 99.01     Mainly Clear
16:00 13.3 2.6 48   19 7 24.1 98.98     Mainly Clear
17:00 11.2 3.6 59   19 6 15.0 98.98      
18:00 6.1 3.2 82   15 7 15.0 98.96      
19:00 5.3 2.5 82   16 7 15.0 99.02      
20:00 6.5 2.3 74   17 7 15.0 99.06      
21:00 2.0 0.5 90     0 15.0 99.00      
22:00 1.6 0.4 92   1 4 15.0 98.99      
23:00 2.6 1.6 93   31 7 15.0 99.05      

Notes on Data Quality.

Legend

  • E = Estimated
  • M = Missing
  • NA = Not Available*
  • [empty] = Indicates an unobserved value
Date modified: